Wilmington, OH

3:49 AM EDT on May 01, 2017 (GMT -0400)
Airborne

Weather History for KILN - December, 2013

Change the Weather History Date:

Thursday, December 26, 2013

  Actual Average (KFFO) Record (KFFO)
Temperature  
Mean Temperature 32 °F -  
Max Temperature 37 °F 35 °F 68 °F (2016)
Min Temperature 27 °F 20 °F -11 °F (2004)
Degree Days  
Heating Degree Days 33    
Moisture  
Dew Point 21 °F    
Average Humidity 64    
Maximum Humidity 79    
Minimum Humidity 46    
Precipitation  
Precipitation 0.00 in - - ()
Sea Level Pressure  
Sea Level Pressure 30.32 in    
Wind  
Wind Speed 13 mph (WSW)    
Max Wind Speed 20 mph    
Max Gust Speed 30 mph    
Visibility 10 miles    
Events      
Averages and records for this station are not official NWS values.
T = Trace of Precipitation, MM = Missing Value Source: NWS Daily Summary

Daily Weather History Graph

Daily Weather History Graph

Search for Another Location

Airport or City:

Trip Planner

Search our weather history database for the weather conditions in past years. The results will help you decide how hot, cold, wet, or windy it might be!

Date:

Astronomy

Dec. 26, 2013 Rise Set
Actual Time 7:53 AM EST 5:17 PM EST
Civil Twilight 7:23 AM EST 5:48 PM EST
Nautical Twilight 6:49 AM EST 6:21 PM EST
Astronomical Twilight 6:17 AM EST 6:54 PM EST
Moon 1:22 AM EST (12/26) 12:51 PM EST (12/26)
Length of Visible Light 10h 24m
Length of Day
9h 23m
Last Quarter, 38% of the Moon is Illuminated
Dec 26
Last Quarter
Jan 1
New
Jan 7
First Quarter
Jan 15
Full
Jan 24
Last Quarter

Hourly Weather History & Observations

Time (EST) Temp. Windchill Dew Point Humidity Pressure Visibility Wind Dir Wind Speed Gust Speed Precip Events Conditions
12:54 AM 32.0 °F 24.2 °F 19.9 °F 61% 30.23 in 10.0 mi SW 9.2 mph - N/A   Overcast
1:33 AM 32.0 °F 24.2 °F 19.9 °F 61% 30.15 in 10.0 mi WSW 9.2 mph - N/A   Overcast
1:54 AM 32.0 °F 22.5 °F 21.0 °F 64% 30.22 in 10.0 mi West 12.7 mph - N/A   Overcast
2:54 AM 30.9 °F 18.7 °F 23.0 °F 72% 30.24 in 10.0 mi West 19.6 mph 27.6 mph N/A   Overcast
3:54 AM 30.9 °F 19.8 °F 24.1 °F 76% 30.24 in 10.0 mi West 16.1 mph 23.0 mph N/A   Overcast
4:54 AM 30.9 °F 21.2 °F 25.0 °F 79% 30.24 in 10.0 mi WSW 12.7 mph 24.2 mph N/A   Overcast
5:54 AM 30.9 °F 19.8 °F 25.0 °F 79% 30.27 in 10.0 mi WSW 16.1 mph - N/A   Overcast
6:54 AM 30.9 °F 19.8 °F 24.1 °F 76% 30.29 in 10.0 mi West 16.1 mph 24.2 mph N/A   Overcast
7:12 AM 30.9 °F 18.7 °F 23.0 °F 72% 30.22 in 10.0 mi West 19.6 mph - N/A   Overcast
7:25 AM 30.0 °F 19.1 °F 23.0 °F 75% 30.22 in 10.0 mi West 15.0 mph - N/A   Mostly Cloudy
7:54 AM 28.9 °F 18.6 °F 19.9 °F 69% 30.33 in 10.0 mi West 12.7 mph - N/A   Partly Cloudy
8:47 AM 28.9 °F 17.3 °F 19.9 °F 69% 30.27 in 10.0 mi West 16.1 mph 29.9 mph N/A   Mostly Cloudy
8:54 AM 30.0 °F 19.1 °F 21.0 °F 69% 30.35 in 10.0 mi West 15.0 mph - N/A   Mostly Cloudy
9:08 AM 30.0 °F 18.3 °F 21.0 °F 69% 30.28 in 10.0 mi West 17.3 mph 24.2 mph N/A   Scattered Clouds
9:37 AM 30.0 °F 18.7 °F 19.9 °F 66% 30.29 in 10.0 mi West 16.1 mph - N/A   Mostly Cloudy
9:54 AM 30.9 °F 19.8 °F 19.9 °F 64% 30.38 in 10.0 mi West 16.1 mph - N/A   Scattered Clouds
10:54 AM 32.0 °F 20.5 °F 19.0 °F 59% 30.40 in 10.0 mi WSW 18.4 mph - N/A   Clear
11:54 AM 34.0 °F 23.8 °F 18.0 °F 52% 30.40 in 10.0 mi West 16.1 mph - N/A   Clear
12:54 PM 36.0 °F 25.6 °F 19.0 °F 50% 30.39 in 10.0 mi West 18.4 mph - N/A   Clear
1:54 PM 37.0 °F 27.4 °F 18.0 °F 46% 30.38 in 10.0 mi WSW 17.3 mph - N/A   Clear
2:54 PM 37.0 °F 28.9 °F 19.0 °F 48% 30.38 in 10.0 mi WSW 12.7 mph - N/A   Clear
3:54 PM 37.0 °F 29.3 °F 18.0 °F 46% 30.38 in 10.0 mi WSW 11.5 mph - N/A   Clear
4:54 PM 35.1 °F 27.9 °F 18.0 °F 50% 30.39 in 10.0 mi WSW 9.2 mph - N/A   Clear
5:54 PM 32.0 °F 25.6 °F 17.1 °F 54% 30.41 in 10.0 mi WSW 6.9 mph - N/A   Clear
7:54 PM 30.9 °F 26.2 °F 19.0 °F 61% 30.41 in 10.0 mi SW 4.6 mph - N/A   Partly Cloudy
8:54 PM 27.0 °F 20.5 °F 19.9 °F 75% 30.41 in 10.0 mi South 5.8 mph - N/A   Clear
9:54 PM 28.0 °F 20.8 °F 21.0 °F 75% 30.41 in 10.0 mi South 6.9 mph - N/A   Mostly Cloudy
11:54 PM 32.0 °F 24.2 °F 23.0 °F 69% 30.40 in 10.0 mi SSW 9.2 mph - N/A   Partly Cloudy